Regional Weather Roundup
Issued by NWS Jackson, KY

Home | Current Version | Previous Version | Text Only | Print | Product List | Glossary On
Versions: 1 2 3 4 5 6 7 8 9 10 11 12 13 14 15 16 17 18 19 20 21 22 23 24 25 26 27
000
ASUS43 KJKL 211510
RWRJKL

EAST KENTUCKY HOURLY WEATHER ROUNDUP
NATIONAL WEATHER SERVICE JACKSON KY
1000 AM EST SAT JAN 21 2017

NOTE: "FAIR" INDICATES FEW OR NO CLOUDS BELOW 12,000 FEET WITH
NO SIGNIFICANT WEATHER AND/OR OBSTRUCTIONS TO VISIBILITY.

* THESE REPORTS ARE NOT UNDER NWS QUALITY CONTROL AND MAY NOT
  REPORT WEATHER SUCH AS PRECIPITATION AND FOG.

KYZ079-080-083-085-087-088-110-112-115-119-120-211600
...EASTERN KENTUCKY...

CITY           SKY/WX    TMP DP  RH WIND       PRES   REMARKS
JACKSON        MOSUNNY   57  50  77 S3        29.81R
LONDON         CLOUDY    55  51  86 CALM      29.79F
SOMERSET*      CLOUDY    55  52  88 S3        29.78F
MONTICELLO*    CLOUDY    59  54  83 VRB7      29.78F
WILLIAMSBURG*  CLOUDY    57  55  94 SE8       29.80S
MIDDLESBORO*   CLOUDY    50  50 100 CALM      29.83F
HARLAN APT*    CLOUDY    46  46 100 CALM      29.83F VSB 1/2
PIKE CO APT*     N/A     56  50  82 S6        29.83S
BIG SANDY APT* MOSUNNY   57  50  77 S7        29.83R
MOREHEAD APT*  SUNNY     57  50  77 S7        29.80S
ASHLAND*       SUNNY     48  46  93 SE3       29.78R
$$

KYZ035-036-041-042-044-050-067-078-099-211600
...CENTRAL KENTUCKY...

CITY           SKY/WX    TMP DP  RH WIND       PRES   REMARKS
MT STERLING*   MOSUNNY   55  52  88 SW7       29.79F
FLEMING/MASON* CLOUDY    55  50  84 SW8       29.79R
DANVILLE*      CLOUDY    54  50  87 SW6       29.77F
LEXINGTON      CLOUDY    57  51  80 S12       29.75F
FRANKFORT      CLOUDY    58  50  75 S7        29.72F
LOUISVILLE     CLOUDY    57  52  83 SE6       29.69F
LEBANON*         N/A     59  54  82 SE10      29.73F
GLASGOW*       PTSUNNY   59  54  82 SE5       29.72F
BOWLING GREEN  CLOUDY    62  56  80 S9        29.71F
$$

KYZ091>093-OHZ055-061-077-WVZ005-015-034-035-042-211600
...SOUTHERN OHIO/WEST VIRGINIA...

CITY           SKY/WX    TMP DP  RH WIND       PRES   REMARKS
COVINGTON      CLOUDY    54  51  90 S9        29.71S
COLUMBUS       PTSUNNY   55  48  77 S6        29.73S
DAYTON         CLOUDY    52  49  89 S8        29.71S
WILMINGTON     MOSUNNY   53  50  89 S8        29.73S
HUNTINGTON     MOSUNNY   54  49  83 SW6       29.80R
CHARLESTON     PTSUNNY   54  49  83 CALM      29.80R
PINEVILLE*     MOSUNNY   46  45  93 MISG      29.91S
BECKLEY        MOSUNNY   55  48  77 SE7       29.86R
BLUEFIELD      SUNNY     56  46  69 S6        29.89R
LOGAN CO APT*    N/A     57  50  77 S5        29.83R
$$

VAZ002-007-008-TNZ017-027-036-066-071-211600
...SOUTHWEST VIRGINIA/EAST TENNESSEE...

CITY           SKY/WX    TMP DP  RH WIND       PRES   REMARKS
WISE*          CLOUDY    55  48  76 SW3       29.88F
JONESVILLE*    PTSUNNY   50  50 100 CALM      29.86F
ABINGDON*      CLOUDY    54  51  88 CALM      29.88S
BRISTOL        CLOUDY    47  46  97 CALM      29.87S
MORRISTOWN*    SUNNY     52  50  93 E6        29.82F
SEVIERVILLE*   SUNNY     46  46 100 CALM      29.81F
KNOXVILLE      CLOUDY    51  49  92 NE6       29.79F
LAFOLLETTE*    CLOUDY    48  48 100 CALM      29.84F
OAK RIDGE      CLOUDY    52  49  89 CALM      29.82F
CROSSVILLE     FOG       53  53 100 CALM      29.81R VSB 3/4
NASHVILLE      CLOUDY    61  57  87 S9        29.74F
$$

...KEY TO REMARKS...
VSB - VISIBILITY IN MILES
WCI - WIND CHILL INDEX
HX  - HEAT INDEX

$$




USA.gov is the U.S. government's official web portal to all federal, state and local government web resources and services.